SCP
0 0 0 0 0 0 0 0 0 0 0 0 0 0 0 0 0 0 0 0 0 0 0 0 0 0 0 0 0 0 0 0 0 0 0 0 0 0 0 0 0 0 0 0
0 0 0 0 0 0 0 0 0 0 0 0 0 0 0 0 0 0 0 0 0 0 0 0 0 0 0 0 0 0 0 0 0 0 0 0 0 0 0 0 0 0 0 0
0 0 0 0 0 0 0 0 0 0 0 0 0 0 0 0 0 0 0 0 0 0 0 0 0 0 0 0 0 0 0 0 0 0 0 0 0 0 0 0 0 0 0 0
0 0 0 0 0 0 0 0 0 0 0 0 0 0 0 0 0 0 0 0 0 0 0 0 0 0 0 0 0 0 0 0 0 0 0 0 0 0 0 0 0 0 0 0
0 0 0 0 0 0 0 0 0 0 0 0 0 0 0 0 0 0 0 0 0 0 0 0 0 0 0 0 0 0 0 0 0 0 0 0 0 0 0 0 0 0 0 0
0 0 0 0 0 0 0 0 0 0 0 0 0 0 0 0 0 0 0 0 0 0 0 0 0 0 0 0 0 0 0 0 0 0 0 0 0 0 0 0 0 0 0 0
0 0 0 0 0 0 0 0 0 0 0 0 0 0 0 0 0 0 0 0 0 0 0 0 0 0 0 0 0 0 0 0 0 0 0 0 0 0 0 0 0 0 0 0
0 0 0 0 0 0 0 0 0 0 0 0 0 0 0 0 0 0 0 0 0 0 0 0 0 0 0 0 0 0 0 0 0 0 0 0 0 0 0 0 0 0 0 0
0 0 0 0 0 0 0 0 0 0 0 0 0 0 0 0 0 0 0 0 0 0 -0 0 0 0 0 0 0 0 0 0 0 0 0 0 0 0 0 0 0 0 0 0
0 0 0 0 0 0 0 0 0 0 0 0 0 0 0 0 0 -0 0 0 0 0 0 0 0 0 0 0 0 0 0 0 0 0 0 0 0 0 0 0 0 0 0 0
0 0 0 0 0 0 0 0 0 0 0 0 0 0 0 0 -0 -0 0 0 0 0 0 0 0 0 0 0 0 0 0 0 0 0 0 0 0 0 0 0 0 0 0 0
0 0 0 0 0 0 0 0 0 0 0 0 0 0 0 0 0 0 0 0 0 0 0 -0 -0 0 0 0 0 0 0 0 0 0 0 0 0 0 0 0 0 0 0 0
0 0 0 0 0 0 0 0 0 0 0 0 0 0 0 0 0 0 0 0 0 0 0 0 0 -0 -0 0 0 0 0 0 0 0 0 0 0 0 0 0 0 0 0 0
0 0 0 0 0 0 0 0 0 0 0 0 0 0 0 0 0 0 0 0 -0 0 0 0 0 -0 -0 0 0 0 0 0 0 0 0 0 0 0 0 0 0 0 0 0
0 0 0 0 0 0 0 0 0 0 0 0 0 0 0 0 0 0 0 0 0 0 0 0 -0 -0 0 0 0 0 0 0 0 0 0 0 0 0 0 0 0 0 0 0
0 0 0 0 0 0 0 0 0 0 0 0 0 0 0 0 0 0 0 0 0 0 0 0 0 0 0 0 0 0 0 0 0 0 0 0 0 0 0 0 0 0 0 0
0 0 0 0 0 0 0 0 0 0 0 0 0 0 0 0 0 0 0 0 0 0 0 0 0 0 0 0 0 0 0 0 0 0 0 0 0 0 0 0 0 0 0 0
0 0 0 0 0 0 0 0 0 0 0 0 0 0 0 0 0 0 0 0 0 0 0 0 0 0 0 0 0 0 0 0 0 0 0 0 0 0 0 0 0 0 0 0
0 0 0 0 0 0 0 0 0 0 0 0 0 0 0 0 0 0 0 0 0 0 0 0 0 0 0 0 0 0 0 0 0 0 0 0 0 0 0 0 0 0 0 0
0 0 0 0 0 0 0 0 0 0 0 0 0 0 0 0 0 0 0 0 0 0 0 0 0 0 0 0 0 0 0 0 0 0 0 0 0 0 0 0 0 0 0 0
0 0 0 0 0 0 0 0 0 0 0 0 0 0 0 0 0 0 0 0 0 0 0 0 0 0 0 0 0 0 0 0 0 0 0 0 0 0 0 0 0 0 0 0
0 0 0 0 0 0 0 0 0 0 0 0 0 0 0 0 0 0 0 0 0 0 0 0 0 0 0 0 0 0 0 0 0 0 0 0 0 0 0 0 0 0 0 0
0 0 0 0 0 0 0 0 0 0 0 0 0 0 0 0 0 0 0 0 0 0 0 0 0 0 0 0 0 0 0 0 0 0 0 0 0 0 0 0 0 0 0 0
0 0 0 0 0 0 0 0 0 0 0 0 0 0 0 0 0 0 0 0 0 0 0 0 0 0 0 0 0 0 0 0 0 0 0 0 0 0 0 0 0 0 0 0
0 0 0 0 0 0 0 0 0 0 0 0 0 0 0 0 0 0 0 0 0 0 0 0 0 0 0 0 0 0 0 0 0 0 0 0 0 0 0 0 0 0 0 0
0 0 0 0 0 0 0 0 0 0 0 0 0 0 0 0 0 0 0 0 0 0 0 0 0 0 -0 -0 -0 0 0 0 0 0 0 0 0 0 0 0 0 0 0 0
Wind_Speed_500mb
21 14 22 32 33 27 16 24 28 13 13 6 23 29 28 31 32 32 35 35 37 42 42 42 43 43 44 47 45 46 47 49 50 52 55 58 60 58 58 55 53 52 50 46
11 23 20 7 21 20 20 22 21 5 5 6 20 30 29 31 35 44 45 50 52 53 52 48 43 42 49 55 60 58 54 50 53 56 60 59 56 58 59 58 55 53 51 46
19 3 14 18 17 21 23 26 28 19 3 10 15 35 39 33 43 50 47 51 52 54 51 47 47 49 49 52 56 56 57 55 55 56 52 54 54 53 52 54 55 53 52 52
15 15 18 18 22 21 19 14 22 18 11 20 3 14 5 13 19 21 34 37 43 40 42 38 40 44 50 59 57 62 58 65 61 57 56 56 58 60 58 50 49 49 48 42
10 19 21 22 15 20 4 6 13 12 11 14 18 13 22 15 16 22 31 27 24 23 22 22 24 33 40 46 55 63 65 65 64 64 62 56 57 52 42 32 37 44 45 41
9 3 13 13 5 19 17 20 13 3 4 9 22 22 19 25 24 22 8 10 12 14 18 20 23 28 27 32 41 53 51 55 67 70 66 61 57 49 40 38 42 34 37 39
3 12 8 11 18 10 17 20 5 6 7 12 4 16 29 34 23 12 9 9 15 18 21 20 20 22 21 19 21 25 34 36 41 49 61 60 58 51 45 37 31 27 30 30
17 12 24 21 17 14 32 22 8 12 15 7 5 13 7 13 23 17 14 18 18 21 18 19 21 20 17 16 20 22 23 25 26 29 34 37 42 41 37 33 29 24 21 26
13 11 20 21 8 20 24 17 7 1 3 5 15 21 14 19 23 10 9 11 9 13 14 17 20 17 13 11 13 14 14 14 15 17 22 26 27 27 26 24 23 22 21 21
5 7 1 11 4 15 10 17 8 7 9 14 16 20 17 5 20 25 19 5 5 11 16 15 14 13 11 13 14 15 15 14 16 18 19 20 20 20 18 17 18 20 21 21
10 6 8 13 19 21 14 17 13 7 13 8 14 13 13 6 16 16 11 10 19 19 14 12 16 16 13 16 17 17 18 16 16 17 17 16 14 13 13 13 14 17 20 22
28 5 12 15 8 9 25 25 31 11 16 12 11 20 5 8 9 9 5 8 3 9 12 8 7 12 24 23 23 24 24 22 22 20 17 13 10 10 14 16 18 21 24 26
22 10 9 8 12 9 14 27 28 31 22 24 18 15 8 9 7 21 13 4 10 3 6 13 15 20 27 34 37 36 34 32 31 27 21 16 12 13 17 20 22 24 27 29
29 12 19 20 5 9 15 30 32 30 18 32 29 51 35 23 11 17 22 8 17 17 20 25 20 22 25 42 49 51 49 46 43 40 34 26 22 18 20 26 30 31 32 32
14 12 22 30 29 11 14 12 20 33 36 35 44 47 42 34 32 35 38 34 36 40 41 38 37 39 41 39 47 60 60 58 54 51 46 39 34 31 28 34 39 38 38 38
10 8 18 23 25 28 32 32 29 34 38 34 46 48 44 53 50 51 48 43 42 50 50 48 46 44 48 43 44 55 64 64 61 60 57 51 47 43 39 40 47 48 45 44
11 6 6 22 24 27 26 34 43 41 44 39 42 44 41 39 36 47 48 46 49 57 46 47 46 49 51 53 42 43 57 60 66 64 60 59 59 61 56 52 52 58 54 50
13 8 6 16 2 25 17 18 30 45 48 43 42 43 49 57 69 59 48 46 55 51 45 48 56 56 55 53 51 55 50 59 61 59 55 61 69 70 72 71 65 66 63 57
16 10 11 12 22 25 26 19 24 17 29 30 39 41 57 71 73 57 50 58 55 61 63 60 61 63 58 52 56 54 56 59 63 69 69 71 73 77 79 80 76 72 67 61
27 23 12 15 19 34 29 31 11 8 19 28 37 36 44 50 26 24 43 41 35 40 51 59 52 53 49 39 32 39 45 48 61 66 67 63 62 62 67 71 75 75 69 63
10 10 30 27 23 14 22 38 12 21 19 23 14 28 40 23 33 43 50 56 49 50 52 56 59 48 41 49 48 53 55 58 47 45 51 57 58 61 63 66 68 71 69 64
24 18 14 15 15 25 27 23 33 33 47 48 48 43 51 54 44 38 46 37 32 37 44 40 45 52 45 42 45 49 50 46 47 52 58 60 60 58 58 59 61 66 66 64
24 24 19 16 12 5 17 24 26 27 35 45 52 49 52 52 57 43 52 39 39 39 44 38 40 42 38 36 39 48 51 51 51 53 55 56 57 56 55 58 62 65 64 63
22 31 23 23 32 37 51 58 65 71 67 64 73 70 72 71 64 44 52 58 58 53 42 50 52 49 42 39 43 50 54 52 53 56 54 50 49 49 50 55 59 61 60 58
22 20 30 29 43 42 51 60 66 63 63 59 66 63 55 63 76 72 67 63 52 48 45 40 40 40 39 37 39 43 48 51 50 48 47 46 45 43 47 51 54 55 54 54
28 33 22 30 46 32 45 48 38 46 49 44 47 46 43 46 62 70 65 48 46 40 37 37 36 38 37 37 37 39 44 45 42 40 38 39 40 41 43 45 46 49 50 51
Wind_Direction_500mb
187 206 208 213 221 233 286 238 244 214 91 257 237 249 247 249 245 252 254 250 248 250 252 248 244 240 239 233 231 232 230 236 235 240 244 251 249 252 253 253 251 251 251 249
173 226 221 270 230 230 238 237 244 265 178 246 270 261 261 256 253 246 249 253 253 254 252 248 245 242 241 241 244 239 236 233 238 242 249 249 258 258 259 257 255 253 254 253
187 70 156 190 188 206 227 242 243 258 240 228 292 269 253 244 250 251 248 248 253 253 255 252 247 243 247 246 244 242 243 241 241 245 241 243 244 252 254 256 256 252 246 243
226 141 183 192 203 202 212 232 247 234 254 262 171 283 189 200 230 230 240 241 246 250 252 252 248 249 249 249 244 240 239 244 241 239 237 236 242 244 253 251 254 253 253 244
163 183 174 188 200 201 143 144 212 230 252 297 239 266 257 243 245 244 246 234 244 247 247 245 249 263 263 253 247 243 240 239 238 237 235 238 239 242 243 240 238 242 247 237
93 30 202 203 147 187 140 123 107 143 218 245 233 228 268 235 217 256 255 182 181 286 270 269 267 287 283 258 242 240 236 238 239 236 234 233 237 240 239 234 244 241 239 244
178 173 158 180 144 166 191 168 156 207 205 240 15 216 246 299 284 258 263 215 296 309 304 286 285 290 294 258 247 233 234 242 244 242 241 243 241 237 237 240 245 232 243 247
179 203 187 180 205 180 196 191 206 225 222 236 137 228 237 282 295 274 248 277 302 316 309 299 295 292 281 253 230 227 232 234 237 235 229 224 224 225 231 237 234 232 222 223
207 193 172 186 155 174 187 218 334 294 77 278 239 242 255 259 276 234 175 183 276 318 310 298 291 278 255 226 206 205 214 215 211 209 212 216 214 214 215 220 223 230 239 245
207 146 210 167 233 234 226 166 185 225 226 242 248 248 260 201 245 247 148 134 9 351 347 330 318 298 257 225 211 194 182 182 177 174 178 186 193 202 212 223 236 247 254 257
218 260 117 163 208 193 189 201 226 255 221 253 269 261 5 360 241 263 63 18 5 17 0 333 311 301 258 228 214 204 201 206 211 205 194 189 202 212 220 233 247 263 273 278
207 263 192 197 110 277 244 220 215 217 197 238 292 263 177 77 72 57 24 334 345 51 43 -0 327 308 282 258 238 227 224 224 214 210 199 190 208 243 260 263 267 271 275 278
173 214 181 203 196 214 226 224 241 243 271 257 245 247 63 87 277 286 307 260 197 180 8 343 313 296 272 264 254 246 240 233 225 218 217 221 229 254 271 282 282 276 278 282
177 192 220 224 120 136 206 223 222 229 235 248 247 266 261 259 240 275 295 293 242 265 289 311 298 302 288 269 256 250 246 237 231 227 228 233 242 258 282 285 281 280 280 282
197 225 231 253 283 270 275 251 217 226 237 243 256 264 269 271 275 284 291 290 272 274 278 289 295 289 298 288 278 259 248 241 238 237 239 242 248 255 268 283 282 280 278 283
220 244 237 253 260 261 265 265 262 252 249 253 262 264 271 274 282 281 282 277 276 274 282 292 300 308 294 283 292 263 247 245 246 243 246 249 254 259 267 274 274 273 273 279
196 197 219 254 252 267 261 234 251 259 256 253 257 265 281 280 282 276 277 281 273 274 277 278 283 292 297 283 288 292 254 251 252 252 254 258 262 263 263 264 269 267 267 270
184 195 172 262 165 246 243 273 251 242 250 257 262 266 270 281 285 283 286 275 271 278 279 273 278 284 283 285 277 286 271 259 256 251 253 265 269 268 265 260 260 263 259 260
199 188 233 242 246 269 271 253 227 236 262 261 253 264 271 278 288 290 281 275 273 274 274 276 282 281 279 271 279 272 269 266 262 264 268 269 271 270 267 262 259 259 256 257
222 219 214 229 250 258 248 250 286 292 260 265 264 268 278 287 281 286 297 300 295 283 279 286 290 290 279 286 285 278 271 267 268 268 272 274 271 271 269 265 258 255 252 253
185 211 224 229 243 243 250 276 243 240 262 275 297 281 270 264 268 286 283 289 293 286 283 278 282 274 279 284 283 275 275 273 278 262 269 268 268 271 270 264 255 249 248 250
186 186 207 224 236 248 228 241 217 246 260 271 278 262 264 273 278 268 275 278 290 304 302 289 272 273 278 280 279 279 276 279 277 275 273 269 270 271 270 264 252 247 248 251
240 223 231 219 226 160 265 271 285 290 290 287 282 274 271 282 279 271 271 273 275 287 295 289 289 288 289 288 290 284 283 279 280 278 279 275 272 268 264 252 245 244 247 250
237 236 251 258 250 253 265 277 280 282 281 282 282 277 278 281 273 262 268 279 294 290 280 276 281 285 288 288 287 288 289 290 286 282 279 274 269 264 255 248 244 245 248 253
240 242 245 255 257 261 261 262 266 271 272 274 275 281 279 271 266 274 275 289 290 286 282 273 277 280 287 291 292 291 289 286 283 281 278 273 265 254 246 243 244 246 251 256
232 235 229 240 252 250 260 265 279 282 274 272 281 283 291 294 290 279 277 276 281 281 279 277 276 282 286 289 293 295 295 291 286 280 270 262 257 252 249 250 252 255 259 265
Wind_Speed_850mb
21 14 22 32 33 27 16 24 28 13 13 6 23 29 28 31 32 32 35 35 37 42 42 42 43 43 44 47 45 46 47 49 50 52 55 58 60 58 58 55 53 52 50 46
11 23 20 7 21 20 20 22 21 5 5 6 20 30 29 31 35 44 45 50 52 53 52 48 43 42 49 55 60 58 54 50 53 56 60 59 56 58 59 58 55 53 51 46
19 3 14 18 17 21 23 26 28 19 3 10 15 35 39 33 43 50 47 51 52 54 51 47 47 49 49 52 56 56 57 55 55 56 52 54 54 53 52 54 55 53 52 52
15 15 18 18 22 21 19 14 22 18 11 20 3 14 5 13 19 21 34 37 43 40 42 38 40 44 50 59 57 62 58 65 61 57 56 56 58 60 58 50 49 49 48 42
10 19 21 22 15 20 4 6 13 12 11 14 18 13 22 15 16 22 31 27 24 23 22 22 24 33 40 46 55 63 65 65 64 64 62 56 57 52 42 32 37 44 45 41
9 3 13 13 5 19 17 20 13 3 4 9 22 22 19 25 24 22 8 10 12 14 18 20 23 28 27 32 41 53 51 55 67 70 66 61 57 49 40 38 42 34 37 39
3 12 8 11 18 10 17 20 5 6 7 12 4 16 29 34 23 12 9 9 15 18 21 20 20 22 21 19 21 25 34 36 41 49 61 60 58 51 45 37 31 27 30 30
17 12 24 21 17 14 32 22 8 12 15 7 5 13 7 13 23 17 14 18 18 21 18 19 21 20 17 16 20 22 23 25 26 29 34 37 42 41 37 33 29 24 21 26
13 11 20 21 8 20 24 17 7 1 3 5 15 21 14 19 23 10 9 11 9 13 14 17 20 17 13 11 13 14 14 14 15 17 22 26 27 27 26 24 23 22 21 21
5 7 1 11 4 15 10 17 8 7 9 14 16 20 17 5 20 25 19 5 5 11 16 15 14 13 11 13 14 15 15 14 16 18 19 20 20 20 18 17 18 20 21 21
10 6 8 13 19 21 14 17 13 7 13 8 14 13 13 6 16 16 11 10 19 19 14 12 16 16 13 16 17 17 18 16 16 17 17 16 14 13 13 13 14 17 20 22
28 5 12 15 8 9 25 25 31 11 16 12 11 20 5 8 9 9 5 8 3 9 12 8 7 12 24 23 23 24 24 22 22 20 17 13 10 10 14 16 18 21 24 26
22 10 9 8 12 9 14 27 28 31 22 24 18 15 8 9 7 21 13 4 10 3 6 13 15 20 27 34 37 36 34 32 31 27 21 16 12 13 17 20 22 24 27 29
29 12 19 20 5 9 15 30 32 30 18 32 29 51 35 23 11 17 22 8 17 17 20 25 20 22 25 42 49 51 49 46 43 40 34 26 22 18 20 26 30 31 32 32
14 12 22 30 29 11 14 12 20 33 36 35 44 47 42 34 32 35 38 34 36 40 41 38 37 39 41 39 47 60 60 58 54 51 46 39 34 31 28 34 39 38 38 38
10 8 18 23 25 28 32 32 29 34 38 34 46 48 44 53 50 51 48 43 42 50 50 48 46 44 48 43 44 55 64 64 61 60 57 51 47 43 39 40 47 48 45 44
11 6 6 22 24 27 26 34 43 41 44 39 42 44 41 39 36 47 48 46 49 57 46 47 46 49 51 53 42 43 57 60 66 64 60 59 59 61 56 52 52 58 54 50
13 8 6 16 2 25 17 18 30 45 48 43 42 43 49 57 69 59 48 46 55 51 45 48 56 56 55 53 51 55 50 59 61 59 55 61 69 70 72 71 65 66 63 57
16 10 11 12 22 25 26 19 24 17 29 30 39 41 57 71 73 57 50 58 55 61 63 60 61 63 58 52 56 54 56 59 63 69 69 71 73 77 79 80 76 72 67 61
27 23 12 15 19 34 29 31 11 8 19 28 37 36 44 50 26 24 43 41 35 40 51 59 52 53 49 39 32 39 45 48 61 66 67 63 62 62 67 71 75 75 69 63
10 10 30 27 23 14 22 38 12 21 19 23 14 28 40 23 33 43 50 56 49 50 52 56 59 48 41 49 48 53 55 58 47 45 51 57 58 61 63 66 68 71 69 64
24 18 14 15 15 25 27 23 33 33 47 48 48 43 51 54 44 38 46 37 32 37 44 40 45 52 45 42 45 49 50 46 47 52 58 60 60 58 58 59 61 66 66 64
24 24 19 16 12 5 17 24 26 27 35 45 52 49 52 52 57 43 52 39 39 39 44 38 40 42 38 36 39 48 51 51 51 53 55 56 57 56 55 58 62 65 64 63
22 31 23 23 32 37 51 58 65 71 67 64 73 70 72 71 64 44 52 58 58 53 42 50 52 49 42 39 43 50 54 52 53 56 54 50 49 49 50 55 59 61 60 58
22 20 30 29 43 42 51 60 66 63 63 59 66 63 55 63 76 72 67 63 52 48 45 40 40 40 39 37 39 43 48 51 50 48 47 46 45 43 47 51 54 55 54 54
28 33 22 30 46 32 45 48 38 46 49 44 47 46 43 46 62 70 65 48 46 40 37 37 36 38 37 37 37 39 44 45 42 40 38 39 40 41 43 45 46 49 50 51
Wind_Direction_850mb
187 206 208 213 221 233 286 238 244 214 91 257 237 249 247 249 245 252 254 250 248 250 252 248 244 240 239 233 231 232 230 236 235 240 244 251 249 252 253 253 251 251 251 249
173 226 221 270 230 230 238 237 244 265 178 246 270 261 261 256 253 246 249 253 253 254 252 248 245 242 241 241 244 239 236 233 238 242 249 249 258 258 259 257 255 253 254 253
187 70 156 190 188 206 227 242 243 258 240 228 292 269 253 244 250 251 248 248 253 253 255 252 247 243 247 246 244 242 243 241 241 245 241 243 244 252 254 256 256 252 246 243
226 141 183 192 203 202 212 232 247 234 254 262 171 283 189 200 230 230 240 241 246 250 252 252 248 249 249 249 244 240 239 244 241 239 237 236 242 244 253 251 254 253 253 244
163 183 174 188 200 201 143 144 212 230 252 297 239 266 257 243 245 244 246 234 244 247 247 245 249 263 263 253 247 243 240 239 238 237 235 238 239 242 243 240 238 242 247 237
93 30 202 203 147 187 140 123 107 143 218 245 233 228 268 235 217 256 255 182 181 286 270 269 267 287 283 258 242 240 236 238 239 236 234 233 237 240 239 234 244 241 239 244
178 173 158 180 144 166 191 168 156 207 205 240 15 216 246 299 284 258 263 215 296 309 304 286 285 290 294 258 247 233 234 242 244 242 241 243 241 237 237 240 245 232 243 247
179 203 187 180 205 180 196 191 206 225 222 236 137 228 237 282 295 274 248 277 302 316 309 299 295 292 281 253 230 227 232 234 237 235 229 224 224 225 231 237 234 232 222 223
207 193 172 186 155 174 187 218 334 294 77 278 239 242 255 259 276 234 175 183 276 318 310 298 291 278 255 226 206 205 214 215 211 209 212 216 214 214 215 220 223 230 239 245
207 146 210 167 233 234 226 166 185 225 226 242 248 248 260 201 245 247 148 134 9 351 347 330 318 298 257 225 211 194 182 182 177 174 178 186 193 202 212 223 236 247 254 257
218 260 117 163 208 193 189 201 226 255 221 253 269 261 5 360 241 263 63 18 5 17 0 333 311 301 258 228 214 204 201 206 211 205 194 189 202 212 220 233 247 263 273 278
207 263 192 197 110 277 244 220 215 217 197 238 292 263 177 77 72 57 24 334 345 51 43 -0 327 308 282 258 238 227 224 224 214 210 199 190 208 243 260 263 267 271 275 278
173 214 181 203 196 214 226 224 241 243 271 257 245 247 63 87 277 286 307 260 197 180 8 343 313 296 272 264 254 246 240 233 225 218 217 221 229 254 271 282 282 276 278 282
177 192 220 224 120 136 206 223 222 229 235 248 247 266 261 259 240 275 295 293 242 265 289 311 298 302 288 269 256 250 246 237 231 227 228 233 242 258 282 285 281 280 280 282
197 225 231 253 283 270 275 251 217 226 237 243 256 264 269 271 275 284 291 290 272 274 278 289 295 289 298 288 278 259 248 241 238 237 239 242 248 255 268 283 282 280 278 283
220 244 237 253 260 261 265 265 262 252 249 253 262 264 271 274 282 281 282 277 276 274 282 292 300 308 294 283 292 263 247 245 246 243 246 249 254 259 267 274 274 273 273 279
196 197 219 254 252 267 261 234 251 259 256 253 257 265 281 280 282 276 277 281 273 274 277 278 283 292 297 283 288 292 254 251 252 252 254 258 262 263 263 264 269 267 267 270
184 195 172 262 165 246 243 273 251 242 250 257 262 266 270 281 285 283 286 275 271 278 279 273 278 284 283 285 277 286 271 259 256 251 253 265 269 268 265 260 260 263 259 260
199 188 233 242 246 269 271 253 227 236 262 261 253 264 271 278 288 290 281 275 273 274 274 276 282 281 279 271 279 272 269 266 262 264 268 269 271 270 267 262 259 259 256 257
222 219 214 229 250 258 248 250 286 292 260 265 264 268 278 287 281 286 297 300 295 283 279 286 290 290 279 286 285 278 271 267 268 268 272 274 271 271 269 265 258 255 252 253
185 211 224 229 243 243 250 276 243 240 262 275 297 281 270 264 268 286 283 289 293 286 283 278 282 274 279 284 283 275 275 273 278 262 269 268 268 271 270 264 255 249 248 250
186 186 207 224 236 248 228 241 217 246 260 271 278 262 264 273 278 268 275 278 290 304 302 289 272 273 278 280 279 279 276 279 277 275 273 269 270 271 270 264 252 247 248 251
240 223 231 219 226 160 265 271 285 290 290 287 282 274 271 282 279 271 271 273 275 287 295 289 289 288 289 288 290 284 283 279 280 278 279 275 272 268 264 252 245 244 247 250
237 236 251 258 250 253 265 277 280 282 281 282 282 277 278 281 273 262 268 279 294 290 280 276 281 285 288 288 287 288 289 290 286 282 279 274 269 264 255 248 244 245 248 253
240 242 245 255 257 261 261 262 266 271 272 274 275 281 279 271 266 274 275 289 290 286 282 273 277 280 287 291 292 291 289 286 283 281 278 273 265 254 246 243 244 246 251 256
232 235 229 240 252 250 260 265 279 282 274 272 281 283 291 294 290 279 277 276 281 281 279 277 276 282 286 289 293 295 295 291 286 280 270 262 257 252 249 250 252 255 259 265